Location: South Tamworth Observatory
(43.8246°N, 71.3026°W)
Time: 16:50:02
(UTC-04:00)

Amateur Radio Satellites - All Passes

Search period start: 25 September 2016 16:20
Search period end: 26 September 2016 16:20
Location: South Tamworth Observatory, 43.8246°N, 71.3026°W

Satellite Date Start Highest point End Downlink Frequencies (MHz)
Time Altitude Azimuth
O/OREOS (USA 219) 25 Sep 16:20:35 16:23:41 17° 51° (NE) 16:26:45 437.305
AIST 1 25 Sep 16:24:59 16:29:09 46° 77° (ENE) 16:33:15
BEESAT 25 Sep 16:32:22 16:36:13 25° 295° (WNW) 16:40:04 436.000
STARS 25 Sep 16:36:02 16:39:36 24° 95° (E) 16:43:08 437.465
Cosmos 2504 25 Sep 16:43:52 16:50:34 39° 272° (W) 16:57:39 435.465 / 435.565
MOZHAYETS 4 25 Sep 16:45:08 16:49:48 84° 285° (WNW) 16:54:27
NOAA 15 25 Sep 16:46:23 16:50:15 21° 61° (ENE) 16:54:09 137.62
BRITE-PL 25 Sep 16:48:44 16:54:00 41° 69° (ENE) 16:59:13 437.365/2234.400
Cubesat XI-IV 25 Sep 16:52:50 16:56:29 19° 60° (ENE) 17:00:10 437.490
CUTE-I 25 Sep 16:53:49 16:57:32 20° 61° (ENE) 17:01:16 437.470
GOMX 1 25 Sep 16:53:51 16:57:49 21° 64° (ENE) 17:01:41 467.674
PHONESAT 2.4 25 Sep 16:56:34 16:58:15 14° 206° (SSW) 16:59:56 2401.200-2431.200
LilacSat-2 25 Sep 16:57:28 16:59:08 13° 63° (ENE) 17:00:47 437.200
NOAA 18 25 Sep 17:11:04 17:15:21 24° 62° (ENE) 17:19:39 137.9125
DOVE 4 25 Sep 17:29:38 17:33:09 19° 64° (ENE) 17:36:32 437.250
KKS-1 25 Sep 17:30:43 17:34:55 44° 290° (WNW) 17:39:07 437.445
HORYU 2 25 Sep 17:50:50 17:54:39 29° 264° (W) 17:58:30 437.375
SO-50 25 Sep 17:54:09 17:57:43 20° 322° (NW) 18:01:15 436.795
CUBESAT XI-V 25 Sep 17:57:26 18:02:09 76° 101° (E) 18:06:50 437.345
O/OREOS (USA 219) 25 Sep 17:58:58 18:03:32 62° 250° (WSW) 18:08:02 437.305
Cosmos 2491 25 Sep 17:59:21 18:04:12 16° 305° (NW) 18:09:06 435.465 / 435.565
AIST 1 25 Sep 18:03:47 18:06:19 15° 275° (W) 18:08:50
CUSAT 1 25 Sep 18:09:23 18:13:10 17° 77° (ENE) 18:17:22 437.405
HO-68 25 Sep 18:11:43 18:17:09 24° 56° (NE) 18:22:35 435.675
Cosmos 2499 25 Sep 18:11:48 18:14:05 11° 56° (ENE) 18:16:23 435.465 / 435.565
STARS 25 Sep 18:12:04 18:15:59 33° 292° (WNW) 18:19:53 437.465
NOAA 15 25 Sep 18:24:22 18:29:35 59° 259° (WSW) 18:34:52 137.62
MOZHAYETS 4 25 Sep 18:25:16 18:26:11 11° 302° (WNW) 18:27:06
GONETS M04 25 Sep 18:27:28 18:33:53 21° 61° (ENE) 18:40:13
BRITE-PL 25 Sep 18:27:28 18:32:30 32° 266° (W) 18:37:31 437.365/2234.400
CUTE 1.7 + AOD 2 25 Sep 18:29:07 18:30:59 13° 61° (ENE) 18:32:50 437.475
CANX-2 25 Sep 18:29:15 18:31:36 15° 63° (ENE) 18:33:57 2200.000
LilacSat-2 25 Sep 18:29:18 18:32:58 52° 260° (W) 18:36:41 437.200
GOMX 1 25 Sep 18:30:09 18:35:31 58° 260° (W) 18:40:41 467.674
Cubesat XI-IV 25 Sep 18:30:48 18:36:03 64° 258° (WSW) 18:41:22 437.490
CUTE-I 25 Sep 18:31:51 18:37:06 62° 259° (WSW) 18:42:23 437.470
SEEDS 25 Sep 18:36:40 18:37:31 11° 60° (ENE) 18:38:23 437.485
NOAA 18 25 Sep 18:50:21 18:55:41 52° 259° (W) 19:01:01 137.9125
CINEMA 3 25 Sep 19:00:23 19:04:31 37° 71° (ENE) 19:08:31 145.822/145.860
DOVE 4 25 Sep 19:05:29 19:10:29 55° 260° (W) 19:15:14 437.250
AAUSAT CUBESAT 2 25 Sep 19:06:13 19:07:49 12° 61° (ENE) 19:09:24 437.432
RS-15 25 Sep 19:13:52 19:23:27 32° 103° (ESE) 19:33:22 29.354- 29.394
DANDE 25 Sep 19:14:19 19:17:44 18° 78° (ENE) 19:21:44 436.750
STRAND 1 25 Sep 19:33:21 19:38:04 35° 97° (E) 19:42:45 437.568
CUBESAT XI-V 25 Sep 19:36:35 19:38:54 14° 300° (WNW) 19:41:14 437.345
COMPASS 1 25 Sep 19:45:10 19:49:01 37° 71° (ENE) 19:52:54 437.405
CUSAT 1 25 Sep 19:47:46 19:53:48 89° 285° (WNW) 20:01:21 437.405
ZACube-1 25 Sep 19:50:13 19:52:30 15° 63° (ENE) 19:54:47 437.345
Oscar 11 25 Sep 19:52:52 19:55:31 16° 63° (ENE) 19:58:11 145.826/435.025
HO-68 25 Sep 19:57:00 20:04:10 77° 255° (WSW) 20:11:23 435.675
Cosmos 2499 25 Sep 20:01:26 20:08:48 61° 78° (ENE) 20:16:43 435.465 / 435.565
CUTE 1.7 + AOD 2 25 Sep 20:02:03 20:06:15 68° 259° (W) 20:10:30 437.475
CANX-2 25 Sep 20:02:49 20:06:59 57° 260° (W) 20:11:12 2200.000
SEEDS 25 Sep 20:08:21 20:12:33 83° 257° (WSW) 20:16:48 437.485
GONETS M04 25 Sep 20:23:07 20:32:00 89° 263° (W) 20:40:46
CUBEBUG 2 25 Sep 20:25:21 20:29:34 81° 77° (ENE) 20:33:45 437.445
PRISM 25 Sep 20:33:50 20:35:34 12° 90° (E) 20:37:17 437.425
CINEMA 3 25 Sep 20:38:14 20:41:45 22° 266° (W) 20:45:10 145.822/145.860
AAUSAT CUBESAT 2 25 Sep 20:38:34 20:42:42 71° 259° (WSW) 20:46:54 437.432
FUNcube-1 25 Sep 20:43:47 20:47:45 48° 72° (ENE) 20:51:45 145.935
DELFI C3 25 Sep 20:46:39 20:49:46 22° 67° (ENE) 20:52:55 145.870
UWE-3 25 Sep 20:48:57 20:53:08 85° 257° (WSW) 20:57:19 435.000/436.395/437.385
DANDE 25 Sep 20:54:31 20:59:24 64° 284° (WNW) 21:06:01 436.750
STRAND 1 25 Sep 21:12:39 21:17:09 31° 294° (WNW) 21:21:38 437.568
COMPASS 1 25 Sep 21:21:40 21:24:42 20° 267° (W) 21:27:47 437.405
RS-15 25 Sep 21:22:58 21:34:40 79° 306° (NW) 21:47:01 29.354- 29.394
ZACube-1 25 Sep 21:24:18 21:28:21 54° 260° (W) 21:32:26 437.345
Oscar 11 25 Sep 21:27:02 21:31:13 53° 260° (W) 21:35:29 145.826/435.025
CUSAT 1 25 Sep 21:32:39 21:37:09 19° 303° (WNW) 21:42:12 437.405
ISS 25 Sep 21:42:51 21:46:04 70° 146° (SSE) 21:49:20 145.825
UNISAT 6 25 Sep 21:49:25 21:51:05 12° 89° (E) 21:52:46 437.425
HO-68 25 Sep 21:49:47 21:53:01 13° 274° (W) 21:56:15 435.675
AO-85 25 Sep 21:52:16 21:57:27 72° 123° (ESE) 22:02:20 145.980
Cosmos 2499 25 Sep 21:55:25 22:01:26 27° 276° (W) 22:07:46 435.465 / 435.565
HUMSAT D 25 Sep 22:06:38 22:10:43 86° 74° (ENE) 22:14:50 437.325/437.525
PRISM 25 Sep 22:07:09 22:11:15 59° 287° (WNW) 22:15:17 437.425
ESTCUBE 1 25 Sep 22:07:54 22:10:50 17° 62° (ENE) 22:13:46 437.505/2401.250
M-CUBED/EXP-1 PRIME 25 Sep 22:15:05 22:16:19 11° 57° (ENE) 22:17:30 437.505
VELOX 1 25 Sep 22:19:33 22:21:01 11° 59° (ENE) 22:22:29 145.980
DELFI C3 25 Sep 22:20:53 22:24:26 31° 263° (W) 22:28:03 145.870
GONETS M04 25 Sep 22:21:55 22:27:30 19° 284° (WNW) 22:33:03
FUNcube-1 25 Sep 22:21:58 22:24:18 15° 269° (W) 22:26:38 145.935
ANTELSAT 25 Sep 22:23:12 22:26:57 27° 95° (E) 22:30:45 437.575/2403.000
CUBEBUG 1 25 Sep 22:28:37 22:31:33 18° 63° (ENE) 22:34:28 437.445
DANDE 25 Sep 22:42:25 22:44:07 11° 311° (NW) 22:45:56 436.750
TIGRISAT 25 Sep 22:44:10 22:48:19 42° 98° (E) 22:52:33 435.000
50 SAT 25 Sep 23:00:16 23:03:07 22° 68° (ENE) 23:05:59 437.505
SO-50 25 Sep 23:02:43 23:05:49 17° 36° (NE) 23:08:50 436.795
JAS-2 25 Sep 23:08:46 23:13:46 18° 85° (E) 23:18:38 435.910
AISAT 25 Sep 23:08:56 23:13:02 36° 69° (ENE) 23:17:06 437.250
AUBIESAT-1 25 Sep 23:11:30 23:15:12 34° 66° (ENE) 23:18:40 437.475
ISS 25 Sep 23:19:56 23:22:48 27° 344° (NNW) 23:25:42 145.825
SPROUT 25 Sep 23:20:26 23:23:53 24° 67° (ENE) 23:27:20 437.525
UNISAT 6 25 Sep 23:23:53 23:28:14 69° 285° (WNW) 23:32:40 437.425
UKube-1 25 Sep 23:29:19 23:33:02 28° 67° (ENE) 23:36:45 .
QB50P1 25 Sep 23:32:36 23:35:44 20° 93° (E) 23:38:50 145.935-145.965
DUCHIFAT 1 25 Sep 23:33:25 23:36:16 18° 92° (E) 23:39:07 145.980
AO-85 25 Sep 23:34:29 23:38:21 22° 319° (NW) 23:42:03 145.980
RS-15 25 Sep 23:38:52 23:49:26 34° 335° (NNW) 00:00:23 29.354- 29.394
ESTCUBE 1 25 Sep 23:42:45 23:47:12 55° 260° (W) 23:51:41 437.505/2401.250
POPSAT HIP 1 25 Sep 23:45:32 23:49:07 27° 96° (E) 23:52:42 437.405
M-CUBED/EXP-1 PRIME 25 Sep 23:46:09 23:50:23 79° 252° (WSW) 23:54:19 437.505
VELOX 1 25 Sep 23:52:20 23:56:49 85° 258° (WSW) 00:01:17 145.980
DX 1 25 Sep 23:52:31 23:56:51 64° 73° (ENE) 00:01:12 434.975-435.025
ANTELSAT 25 Sep 23:59:50 00:03:39 30° 291° (WNW) 00:07:32 437.575/2403.000
CUBEBUG 1 26 Sep 00:03:08 00:07:26 51° 260° (W) 00:11:46 437.445
NANOSAT C BR1 26 Sep 00:03:18 00:07:16 40° 98° (E) 00:11:13 145.865
Cosmos 2491 26 Sep 00:10:54 00:15:19 14° 54° (NE) 00:19:44 435.465 / 435.565
TIGRISAT 26 Sep 00:21:34 00:24:45 20° 295° (WNW) 00:27:59 435.000
QB50P2 26 Sep 00:24:14 00:28:28 79° 101° (ESE) 00:32:41 145.880/145.840
POLYITAN 1 26 Sep 00:26:29 00:30:42 79° 101° (E) 00:34:55 437.675
50 SAT 26 Sep 00:33:28 00:36:30 25° 264° (W) 00:39:35 437.505
SO-50 26 Sep 00:42:18 00:46:55 86° 237° (WSW) 00:51:24 436.795
AISAT 26 Sep 00:46:02 00:49:34 23° 266° (W) 00:53:08 437.250
AUBIESAT-1 26 Sep 00:46:32 00:49:41 21° 259° (W) 00:52:41 437.475
TISAT 1 26 Sep 00:48:48 00:52:47 44° 71° (ENE) 00:56:46 437.305
JAS-2 26 Sep 00:51:51 00:59:48 84° 104° (ESE) 01:07:27 435.910
SPROUT 26 Sep 00:55:51 00:59:41 32° 263° (W) 01:03:31 437.525
ISS 26 Sep 00:57:28 01:00:01 21° 4° (N) 01:02:36 145.825
Oscar 19 26 Sep 00:58:41 01:01:22 14° 89° (E) 01:04:00 437.125/150
UKube-1 26 Sep 01:05:17 01:09:00 28° 264° (W) 01:12:47 .
QB50P1 26 Sep 01:07:44 01:11:38 37° 290° (WNW) 01:15:30 145.935-145.965
DUCHIFAT 1 26 Sep 01:08:12 01:12:09 41° 289° (WNW) 01:16:05 145.980
YUBILEINY 26 Sep 01:18:33 01:20:47 11° 71° (ENE) 01:23:00 435.215
BUGSAT 1 26 Sep 01:20:14 01:24:15 73° 285° (WNW) 01:28:15 437.445
POPSAT HIP 1 26 Sep 01:21:16 01:24:51 28° 292° (WNW) 01:28:26 437.405
DX 1 26 Sep 01:31:28 01:33:27 13° 270° (W) 01:35:26 434.975-435.025
ITUPSAT 1 26 Sep 01:34:37 01:38:42 29° 66° (ENE) 01:42:50 437.325
Gurwin Techsat 1B 26 Sep 01:37:15 01:40:30 16° 90° (E) 01:43:42 435.225
BEESAT 3 26 Sep 01:39:28 01:43:17 60° 121° (ESE) 01:47:11 437.485
NANOSAT C BR1 26 Sep 01:39:43 01:42:44 19° 295° (WNW) 01:45:44 145.865
SWISSCUBE 26 Sep 01:48:31 01:53:01 44° 70° (ENE) 01:57:33 437.505
RS-15 26 Sep 01:56:45 02:06:55 29° 10° (N) 02:17:09 29.354- 29.394
BEESAT 26 Sep 02:01:38 02:06:14 54° 71° (ENE) 02:10:54 436.000
QB50P2 26 Sep 02:02:28 02:03:39 11° 300° (WNW) 02:04:50 145.880/145.840
POLYITAN 1 26 Sep 02:04:43 02:05:53 11° 300° (WNW) 02:07:03 437.675
Cosmos 2491 26 Sep 02:05:23 02:14:13 65° 78° (ENE) 02:22:57 435.465 / 435.565
MOZHAYETS 4 26 Sep 02:13:57 02:16:02 13° 60° (ENE) 02:18:07
TISAT 1 26 Sep 02:25:54 02:28:38 17° 268° (W) 02:31:23 437.305
BEESAT 2 26 Sep 02:30:04 02:34:01 80° 305° (NW) 02:38:01 435.950
ISS 26 Sep 02:33:56 02:37:06 42° 24° (NNE) 02:40:16 145.825
Oscar 19 26 Sep 02:36:04 02:41:15 75° 286° (WNW) 02:46:22 437.125/150
JAS-2 26 Sep 02:37:56 02:43:53 25° 303° (WNW) 02:49:47 435.910
KKS-1 26 Sep 02:54:22 02:57:44 22° 65° (ENE) 03:01:07 437.445
YUBILEINY 26 Sep 03:07:02 03:15:39 62° 92° (E) 03:24:14 435.215
ITUPSAT 1 26 Sep 03:12:12 03:16:27 32° 263° (W) 03:20:45 437.325
Gurwin Techsat 1B 26 Sep 03:15:39 03:20:57 69° 287° (WNW) 03:26:13 435.225
BEESAT 3 26 Sep 03:18:37 03:21:19 17° 320° (NW) 03:24:02 437.485
ITAMSAT 1 26 Sep 03:24:15 03:29:12 42° 98° (E) 03:34:09 435.822/435.867
SWISSCUBE 26 Sep 03:27:25 03:31:00 21° 267° (W) 03:34:37 437.505
CUBESAT XI-V 26 Sep 03:28:34 03:29:44 11° 58° (ENE) 03:30:52 437.345
Cosmos 2504 26 Sep 03:31:29 03:37:49 32° 86° (E) 03:43:57 435.465 / 435.565
STARS 26 Sep 03:33:54 03:37:33 26° 67° (ENE) 03:41:12 437.465
BEESAT 26 Sep 03:41:12 03:44:21 17° 268° (W) 03:47:30 436.000
MOZHAYETS 4 26 Sep 03:48:00 03:52:34 77° 258° (WSW) 03:57:11
Cosmos 2491 26 Sep 04:03:10 04:10:22 29° 278° (W) 04:17:32 435.465 / 435.565
AO-7 26 Sep 04:09:29 04:17:32 52° 101° (ESE) 04:25:33 29.400- 29.500
ISS 26 Sep 04:10:35 04:13:31 30° 222° (SW) 04:16:27 145.825
BEESAT 2 26 Sep 04:10:43 04:12:31 13° 325° (NW) 04:14:18 435.950
RS-15 26 Sep 04:11:05 04:23:10 54° 42° (NE) 04:35:03 29.354- 29.394
Oscar 19 26 Sep 04:18:15 04:19:39 11° 305° (NW) 04:21:04 437.125/150
KKS-1 26 Sep 04:29:51 04:34:03 40° 262° (W) 04:38:16 437.445
AIST 2 26 Sep 04:33:17 04:37:22 75° 123° (ESE) 04:41:31 435.215
CUSAT 1 26 Sep 04:40:01 04:45:08 18° 56° (NE) 04:49:53 437.405
AO-85 26 Sep 04:44:06 04:46:20 14° 33° (NNE) 04:48:30 145.980
AIST 1 26 Sep 04:55:54 04:59:32 26° 89° (E) 05:03:11
Gurwin Techsat 1B 26 Sep 04:58:48 04:59:55 11° 306° (NW) 05:01:01 435.225
CUBESAT XI-V 26 Sep 05:01:37 05:06:19 84° 76° (ENE) 05:11:04 437.345
ITAMSAT 1 26 Sep 05:04:08 05:08:28 27° 296° (WNW) 05:12:47 435.822/435.867
PCSat 26 Sep 05:04:39 05:10:01 69° 117° (ESE) 05:15:26 145.827
YUBILEINY 26 Sep 05:05:25 05:13:00 32° 293° (WNW) 05:20:36 435.215
STARS 26 Sep 05:09:53 05:13:47 31° 263° (W) 05:17:43 437.465
Cosmos 2504 26 Sep 05:23:46 05:30:54 48° 285° (WNW) 05:37:49 435.465 / 435.565
HORYU 2 26 Sep 05:39:32 05:43:50 45° 100° (E) 05:48:06 437.375
DANDE 26 Sep 05:48:06 05:54:55 27° 63° (ENE) 06:01:37 436.750
LilacSat-2 26 Sep 06:02:19 06:04:31 15° 92° (E) 06:06:43 437.200
AO-7 26 Sep 06:02:35 06:10:07 40° 301° (WNW) 06:17:37 29.400- 29.500
AIST 2 26 Sep 06:13:41 06:16:21 16° 322° (NW) 06:19:02 435.215
CUSAT 1 26 Sep 06:20:39 06:28:38 78° 78° (ENE) 06:35:27 437.405
AO-85 26 Sep 06:23:18 06:27:32 84° 55° (NE) 06:31:28 145.980
RS-15 26 Sep 06:24:01 06:35:56 57° 247° (WSW) 06:47:35 29.354- 29.394
BRITE-PL 26 Sep 06:30:55 06:35:55 89° 112° (ESE) 06:40:27 437.365/2234.400
GOMX 1 26 Sep 06:31:24 06:35:34 37° 96° (E) 06:39:31 467.674
AIST 1 26 Sep 06:33:13 06:37:02 28° 286° (WNW) 06:40:51
O/OREOS (USA 219) 26 Sep 06:35:57 06:37:59 13° 98° (E) 06:40:02 437.305
NOAA 15 26 Sep 06:38:05 06:43:13 47° 99° (E) 06:48:18 137.62
CUBESAT XI-V 26 Sep 06:43:17 06:44:18 11° 273° (W) 06:45:20 437.345
Cubesat XI-IV 26 Sep 06:46:35 06:51:45 46° 99° (E) 06:56:52 437.490
CUTE-I 26 Sep 06:47:25 06:52:36 47° 100° (E) 06:57:45 437.470
PCSat 26 Sep 06:49:41 06:53:56 23° 317° (NW) 06:58:13 145.827
STRAND 1 26 Sep 06:50:24 06:55:23 58° 71° (ENE) 07:00:24 437.568
DOVE 4 26 Sep 07:03:29 07:07:20 33° 96° (E) 07:11:04 437.250
NOAA 18 26 Sep 07:10:44 07:16:09 59° 102° (ESE) 07:21:32 137.9125
HORYU 2 26 Sep 07:16:54 07:20:04 19° 296° (WNW) 07:23:14 437.375
HO-68 26 Sep 07:24:33 07:29:25 19° 90° (E) 07:34:17 435.675
PRISM 26 Sep 07:25:03 07:26:42 12° 60° (ENE) 07:28:22 437.425
DANDE 26 Sep 07:30:10 07:38:32 79° 263° (W) 07:46:34 436.750
GONETS M04 26 Sep 07:31:56 07:38:12 22° 78° (ENE) 07:44:27
LilacSat-2 26 Sep 07:35:24 07:39:01 42° 288° (WNW) 07:42:39 437.200
CUTE 1.7 + AOD 2 26 Sep 07:46:21 07:49:26 19° 92° (E) 07:52:30 437.475
CANX-2 26 Sep 07:46:56 07:50:20 22° 93° (E) 07:53:41 2200.000
SEEDS 26 Sep 07:52:05 07:54:37 15° 91° (E) 07:57:08 437.485
AO-7 26 Sep 07:59:46 08:00:36 10° 324° (NW) 08:01:25 29.400- 29.500
CUSAT 1 26 Sep 08:03:59 08:09:38 23° 280° (W) 08:14:47 437.405
GOMX 1 26 Sep 08:10:00 08:13:26 22° 296° (WNW) 08:16:44 467.674
BRITE-PL 26 Sep 08:11:41 08:13:30 12° 303° (WNW) 08:15:17 437.365/2234.400
O/OREOS (USA 219) 26 Sep 08:12:15 08:16:46 68° 295° (WNW) 08:21:22 437.305
CUBEBUG 2 26 Sep 08:15:44 08:18:10 15° 91° (E) 08:20:37 437.445
NOAA 15 26 Sep 08:18:27 08:22:43 25° 297° (WNW) 08:26:57 137.62
AAUSAT CUBESAT 2 26 Sep 08:20:29 08:23:11 17° 91° (E) 08:25:53 437.432
Cubesat XI-IV 26 Sep 08:27:12 08:31:32 26° 297° (WNW) 08:35:54 437.490
CUTE-I 26 Sep 08:28:03 08:32:21 25° 297° (WNW) 08:36:39 437.470
CINEMA 3 26 Sep 08:30:01 08:34:11 76° 102° (ESE) 08:38:24 145.822/145.860
STRAND 1 26 Sep 08:31:28 08:34:56 18° 269° (W) 08:38:25 437.568
UWE-3 26 Sep 08:37:48 08:40:40 17° 92° (E) 08:43:33 435.000/436.395/437.385
Cosmos 2499 26 Sep 08:40:22 08:47:06 45° 90° (E) 08:53:43 435.465 / 435.565
DOVE 4 26 Sep 08:41:35 08:44:52 22° 294° (WNW) 08:48:05 437.250
RS-15 26 Sep 08:42:06 08:45:25 11° 269° (W) 08:48:45 29.354- 29.394
UNISAT 6 26 Sep 08:50:01 08:51:58 13° 61° (ENE) 08:53:55 437.425
NOAA 18 26 Sep 08:52:19 08:56:22 22° 300° (WNW) 09:00:24 137.9125
PRISM 26 Sep 08:57:16 09:01:26 71° 257° (WSW) 09:05:37 437.425
COMPASS 1 26 Sep 09:01:36 09:05:48 59° 100° (E) 09:09:57 437.405
BEESAT 2 26 Sep 09:10:12 09:12:23 14° 37° (NE) 09:14:34 435.950
HO-68 26 Sep 09:10:45 09:17:56 82° 289° (WNW) 09:25:05 435.675
ZACube-1 26 Sep 09:11:12 09:14:46 25° 95° (E) 09:18:22 437.345
Oscar 11 26 Sep 09:13:08 09:16:45 25° 94° (E) 09:20:21 145.826/435.025
DANDE 26 Sep 09:14:56 09:20:05 18° 282° (WNW) 09:25:08 436.750
CUTE 1.7 + AOD 2 26 Sep 09:21:24 09:25:26 40° 289° (WNW) 09:29:28 437.475
CANX-2 26 Sep 09:22:20 09:26:15 35° 290° (WNW) 09:30:10 2200.000
ANTELSAT 26 Sep 09:23:33 09:27:10 27° 68° (ENE) 09:30:46 437.575/2403.000
GONETS M04 26 Sep 09:25:03 09:33:54 82° 279° (W) 09:42:50
SEEDS 26 Sep 09:26:28 09:30:36 50° 287° (WNW) 09:34:43 437.485
TIGRISAT 26 Sep 09:44:10 09:48:11 42° 71° (ENE) 09:52:12 435.000
HUMSAT D 26 Sep 09:50:11 09:52:09 13° 90° (E) 09:54:07 437.325/437.525
CUBEBUG 2 26 Sep 09:50:57 09:55:05 52° 287° (WNW) 09:59:19 437.445
AAUSAT CUBESAT 2 26 Sep 09:54:53 09:58:54 44° 288° (WNW) 10:02:53 437.432
BEESAT 3 26 Sep 09:55:16 09:59:11 54° 52° (NE) 10:03:05 437.485
DELFI C3 26 Sep 09:56:45 10:00:17 28° 96° (E) 10:03:46 145.870
O/OREOS (USA 219) 26 Sep 09:56:54 09:57:06 10° 315° (NW) 09:57:19 437.305
FUNcube-1 26 Sep 10:05:54 10:10:13 89° 102° (ESE) 10:14:37 145.935
CINEMA 3 26 Sep 10:09:43 10:10:45 11° 299° (WNW) 10:11:48 145.822/145.860
UWE-3 26 Sep 10:13:15 10:17:20 45° 288° (WNW) 10:21:31 435.000/436.395/437.385
UNISAT 6 26 Sep 10:23:55 10:28:10 66° 259° (W) 10:32:25 437.425
QB50P1 26 Sep 10:26:38 10:29:35 19° 65° (ENE) 10:32:32 145.935-145.965
DUCHIFAT 1 26 Sep 10:27:00 10:29:39 17° 64° (ENE) 10:32:19 145.980
Cosmos 2499 26 Sep 10:34:02 10:40:21 33° 289° (WNW) 10:46:38 435.465 / 435.565
COMPASS 1 26 Sep 10:38:39 10:40:52 14° 297° (WNW) 10:43:06 437.405
POPSAT HIP 1 26 Sep 10:39:25 10:42:50 24° 67° (ENE) 10:46:15 437.405
BEESAT 2 26 Sep 10:46:45 10:50:47 88° 236° (WSW) 10:54:48 435.950
ZACube-1 26 Sep 10:47:16 10:51:04 32° 291° (WNW) 10:54:56 437.345
Oscar 11 26 Sep 10:49:02 10:52:54 32° 291° (WNW) 10:56:45 145.826/435.025
NANOSAT C BR1 26 Sep 10:56:36 11:00:25 35° 70° (ENE) 11:04:15 145.865
HO-68 26 Sep 11:00:05 11:04:36 18° 308° (NW) 11:09:08 435.675
ANTELSAT 26 Sep 11:00:10 11:03:50 27° 264° (W) 11:07:30 437.575/2403.000
JAS-2 26 Sep 11:04:59 11:11:04 44° 65° (ENE) 11:17:53 435.910
AIST 2 26 Sep 11:16:21 11:18:18 13° 35° (NE) 11:20:14 435.215
QB50P2 26 Sep 11:17:47 11:21:58 69° 74° (ENE) 11:26:10 145.880/145.840
POLYITAN 1 26 Sep 11:20:02 11:24:12 69° 75° (ENE) 11:28:23 437.675
TIGRISAT 26 Sep 11:22:11 11:25:05 18° 268° (W) 11:28:00 435.000
HUMSAT D 26 Sep 11:23:57 11:28:07 60° 286° (WNW) 11:32:20 437.325/437.525
GONETS M04 26 Sep 11:26:24 11:32:16 19° 302° (WNW) 11:38:10
DELFI C3 26 Sep 11:31:43 11:34:59 24° 293° (WNW) 11:38:13 145.870
BEESAT 3 26 Sep 11:34:07 11:36:25 15° 249° (WSW) 11:38:43 437.485
ESTCUBE 1 26 Sep 11:34:07 11:38:03 28° 95° (E) 11:41:55 437.505/2401.250
VELOX 1 26 Sep 11:42:15 11:45:02 16° 91° (E) 11:47:48 145.980
FUNcube-1 26 Sep 11:45:22 11:45:48 10° 300° (WNW) 11:46:14 145.935
CUBEBUG 1 26 Sep 11:50:41 11:54:20 26° 95° (E) 11:57:55 437.445
50 SAT 26 Sep 11:59:39 12:02:33 21° 95° (E) 12:05:24 437.505
DUCHIFAT 1 26 Sep 12:00:56 12:04:58 48° 260° (W) 12:09:02 145.980
QB50P1 26 Sep 12:01:05 12:05:04 42° 261° (W) 12:09:05 145.935-145.965
PCSat 26 Sep 12:08:58 12:12:16 16° 36° (NE) 12:15:33 145.827
BUGSAT 1 26 Sep 12:10:46 12:14:53 90° 170° (S) 12:18:59 437.445
POPSAT HIP 1 26 Sep 12:14:46 12:18:29 30° 264° (W) 12:22:14 437.405
Oscar 19 26 Sep 12:16:10 12:20:21 25° 64° (ENE) 12:24:33 437.125/150
AUBIESAT-1 26 Sep 12:23:44 12:25:42 15° 99° (E) 12:27:40 437.475
NANOSAT C BR1 26 Sep 12:33:03 12:36:14 21° 266° (W) 12:39:26 145.865
PHONESAT 2.4 26 Sep 12:33:21 12:35:59 30° 166° (SSE) 12:38:38 2401.200-2431.200
AISAT 26 Sep 12:33:36 12:37:58 59° 101° (E) 12:42:17 437.250
SPROUT 26 Sep 12:39:54 12:43:52 37° 98° (E) 12:47:48 437.525
UKube-1 26 Sep 12:50:18 12:54:24 40° 99° (E) 12:58:27 .
JAS-2 26 Sep 12:50:21 12:56:12 37° 267° (W) 13:02:45 435.910
AIST 2 26 Sep 12:53:19 12:57:31 73° 55° (NE) 13:01:43 435.215
QB50P2 26 Sep 12:57:06 12:58:14 11° 271° (W) 12:59:21 145.880/145.840
M-CUBED/EXP-1 PRIME 26 Sep 12:58:31 13:01:45 53° 106° (ESE) 13:04:57 437.505
Gurwin Techsat 1B 26 Sep 12:59:09 13:03:43 30° 65° (ENE) 13:08:18 435.225
POLYITAN 1 26 Sep 12:59:25 13:00:28 11° 271° (W) 13:01:31 437.675
ITAMSAT 1 26 Sep 13:08:36 13:10:03 11° 55° (NE) 13:11:30 435.822/435.867
ESTCUBE 1 26 Sep 13:10:49 13:14:50 31° 292° (WNW) 13:18:48 437.505/2401.250
DX 1 26 Sep 13:15:19 13:19:41 82° 284° (WNW) 13:24:01 434.975-435.025
YUBILEINY 26 Sep 13:15:48 13:23:27 33° 68° (ENE) 13:31:02 435.215
Cosmos 2491 26 Sep 13:17:20 13:21:16 14° 73° (ENE) 13:25:12 435.465 / 435.565
VELOX 1 26 Sep 13:17:31 13:21:47 50° 288° (WNW) 13:26:01 145.980
AO-7 26 Sep 13:20:53 13:26:24 20° 47° (NE) 13:31:54 29.400- 29.500
Cosmos 2504 26 Sep 13:22:58 13:25:22 12° 57° (ENE) 13:27:48 435.465 / 435.565
CUBEBUG 1 26 Sep 13:26:47 13:30:36 30° 292° (WNW) 13:34:23 437.445
50 SAT 26 Sep 13:32:55 13:36:02 26° 291° (WNW) 13:39:07 437.505
PCSat 26 Sep 13:51:12 13:56:39 73° 58° (ENE) 14:02:03 145.827
Oscar 19 26 Sep 13:54:26 13:59:24 45° 261° (W) 14:04:25 437.125/150
AUBIESAT-1 26 Sep 13:57:21 14:00:18 30° 295° (WNW) 14:03:14 437.475
BEESAT 26 Sep 14:02:21 14:04:14 12° 89° (E) 14:06:08 436.000
TISAT 1 26 Sep 14:06:30 14:10:40 66° 102° (ESE) 14:14:48 437.305
PHONESAT 2.4 26 Sep 14:09:01 14:11:51 42° 182° (S) 14:14:41 2401.200-2431.200
AISAT 26 Sep 14:11:26 14:13:57 15° 299° (WNW) 14:16:28 437.250
SPROUT 26 Sep 14:16:21 14:19:35 21° 294° (WNW) 14:22:47 437.525
UKube-1 26 Sep 14:27:00 14:30:10 20° 296° (WNW) 14:33:19 .
AIST 2 26 Sep 14:33:47 14:35:25 12° 251° (WSW) 14:37:03 435.215
Gurwin Techsat 1B 26 Sep 14:38:37 14:43:32 38° 262° (W) 14:48:29 435.225
ITAMSAT 1 26 Sep 14:43:28 14:48:36 74° 73° (ENE) 14:53:47 435.822/435.867
SO-50 26 Sep 14:58:13 15:02:01 23° 113° (ESE) 15:05:47 436.795
Cosmos 2491 26 Sep 15:07:40 15:16:22 71° 94° (E) 15:25:09 435.465 / 435.565
AO-7 26 Sep 15:09:36 15:17:54 77° 68° (ENE) 15:26:12 29.400- 29.500
ITUPSAT 1 26 Sep 15:10:33 15:15:18 57° 101° (E) 15:20:02 437.325
YUBILEINY 26 Sep 15:12:14 15:20:44 59° 269° (W) 15:29:10 435.215
Cosmos 2504 26 Sep 15:13:00 15:20:19 63° 78° (ENE) 15:28:05 435.465 / 435.565
SWISSCUBE 26 Sep 15:24:33 15:29:25 88° 115° (ESE) 15:34:13 437.505
PCSat 26 Sep 15:36:02 15:39:24 17° 256° (WSW) 15:42:46 145.827
BEESAT 26 Sep 15:37:46 15:42:35 77° 285° (WNW) 15:47:21 436.000
MOZHAYETS 4 26 Sep 15:42:10 15:45:51 23° 93° (E) 15:49:32
TISAT 1 26 Sep 15:43:57 15:45:46 13° 299° (WNW) 15:47:37 437.305
PHONESAT 2.4 26 Sep 15:45:14 15:47:39 23° 199° (SSW) 15:50:05 2401.200-2431.200
BRITE-PL 26 Sep 16:05:31 16:09:18 19° 61° (ENE) 16:13:02 437.365/2234.400
